Location: Clatteringshaws Loch
(55.0508°N, 4.2860°W)
Time: 11:43:05
(UTC+01:00)

Amateur Radio Satellites - All Passes

Search period start: 23 May 2017 11:13
Search period end: 24 May 2017 11:13
Location: Clatteringshaws Loch, 55.0508°N, 4.2860°W

Satellite Date Start Highest point End Downlink Frequencies (MHz)
Time Altitude Azimuth
UNISAT 6 23 May 11:14:20 11:18:03 28° 267° (W) 11:21:51 437.425
HO-68 23 May 11:20:01 11:25:56 29° 314° (NW) 11:31:51 435.675
AIST 2D 23 May 11:21:49 11:25:19 66° 73° (ENE) 11:28:52 435.315
YUBILEINY 23 May 11:25:36 11:33:17 32° 54° (NE) 11:40:57 435.215
Oscar 19 23 May 11:26:37 11:29:07 14° 44° (NE) 11:31:37 437.125/150
BEESAT 2 23 May 11:27:29 11:30:44 22° 349° (NNW) 11:34:00 435.950
AO-73 23 May 11:31:55 11:35:41 27° 299° (WNW) 11:39:30 145.935
DELFI C3 23 May 11:36:35 11:40:32 64° 288° (WNW) 11:44:25 145.870
CUBEBUG 2 23 May 11:39:28 11:41:17 12° 310° (NW) 11:43:06 437.445
AO-85 23 May 11:40:42 11:43:53 23° 14° (NNE) 11:47:06 145.980
ZACube-1 23 May 11:43:41 11:47:05 21° 303° (WNW) 11:50:31 437.345
NANOSAT C BR1 23 May 11:44:29 11:48:36 61° 70° (ENE) 11:52:46 145.865
POLYITAN 1 23 May 11:45:03 11:49:13 66° 70° (ENE) 11:53:25 437.675
RS-15 23 May 11:48:01 12:00:23 82° 229° (SW) 12:12:12 29.354- 29.394
QB50P2 23 May 11:53:26 11:57:38 84° 75° (ENE) 12:01:54 145.880/145.840
DUCHIFAT 1 23 May 11:57:25 12:01:35 72° 71° (ENE) 12:05:46 145.980
BEESAT 3 23 May 11:58:07 12:01:14 21° 6° (N) 12:04:21 437.485
UWE-3 23 May 11:58:20 12:00:16 13° 310° (NW) 12:02:12 435.000/436.395/437.385
LO-87 23 May 12:03:20 12:06:36 33° 97° (E) 12:09:51 145.935 - 145.965
Gurwin Techsat 1B 23 May 12:09:54 12:13:25 18° 48° (NE) 12:16:56 435.225
ESTCUBE 1 23 May 12:23:27 12:27:38 35° 96° (E) 12:31:47 437.505/2401.250
FO-29 23 May 12:25:36 12:27:38 12° 279° (W) 12:29:42 435.910
SPROUT 23 May 12:26:57 12:28:55 13° 85° (E) 12:30:54 437.525
BUGSAT 1 23 May 12:32:10 12:36:06 57° 69° (ENE) 12:40:03 437.445
EO-79 23 May 12:32:22 12:36:25 47° 260° (W) 12:40:30 145.935-145.965
NO-84 23 May 12:34:52 12:39:04 61° 159° (SSE) 12:42:58 435.350 FM
O/OREOS (USA 219) 23 May 12:36:28 12:39:44 19° 33° (NNE) 12:43:01 437.305
EO-88 23 May 12:40:41 12:43:30 21° 300° (WNW) 12:46:19 145.990 - 145.960
AO-7 23 May 12:54:00 13:00:18 25° 34° (NE) 13:06:38 .
AIST 2D 23 May 12:57:00 12:58:57 14° 272° (W) 13:00:56 435.315
Oscar 19 23 May 13:02:22 13:07:24 52° 65° (ENE) 13:12:27 437.125/150
BEESAT 2 23 May 13:06:23 13:09:40 23° 12° (NNE) 13:12:58 435.950
HO-68 23 May 13:08:51 13:11:29 12° 339° (NNW) 13:14:05 435.675
DELFI C3 23 May 13:13:14 13:14:33 11° 309° (NW) 13:15:52 145.870
AO-85 23 May 13:21:05 13:25:00 56° 37° (NE) 13:29:00 145.980
NANOSAT C BR1 23 May 13:21:36 13:24:42 20° 270° (W) 13:27:50 145.865
YUBILEINY 23 May 13:22:26 13:31:20 88° 259° (W) 13:40:12 435.215
POLYITAN 1 23 May 13:22:30 13:25:27 18° 271° (W) 13:28:26 437.675
QB50P2 23 May 13:31:38 13:34:03 15° 273° (W) 13:36:29 145.880/145.840
DUCHIFAT 1 23 May 13:35:00 13:37:45 17° 272° (W) 13:40:30 145.980
BEESAT 3 23 May 13:36:00 13:39:47 37° 29° (NNE) 13:43:33 437.485
VELOX 1 23 May 13:36:48 13:41:05 49° 100° (E) 13:45:19 145.980
LO-87 23 May 13:36:56 13:39:58 27° 296° (WNW) 13:43:00 145.935 - 145.965
50 SAT 23 May 13:46:43 13:49:52 33° 97° (E) 13:52:59 437.505
Gurwin Techsat 1B 23 May 13:47:17 13:52:34 72° 70° (ENE) 13:57:54 435.225
ITAMSAT 1 23 May 13:56:42 14:00:37 22° 52° (NE) 14:04:33 435.822/435.867
ESTCUBE 1 23 May 14:00:17 14:04:30 39° 296° (WNW) 14:08:41 437.505/2401.250
RS-15 23 May 14:01:08 14:11:14 33° 256° (WSW) 14:21:00 29.354- 29.394
SPROUT 23 May 14:01:14 14:05:32 83° 105° (ESE) 14:09:49 437.525
BUGSAT 1 23 May 14:08:51 14:11:49 20° 269° (W) 14:14:48 437.445
NO-84 23 May 14:12:30 14:16:38 89° 12° (NNE) 14:20:25 435.350 FM
O/OREOS (USA 219) 23 May 14:15:26 14:20:01 69° 56° (NE) 14:24:31 437.305
DX 1 23 May 14:25:19 14:29:36 55° 102° (ESE) 14:33:51 434.975-435.025
UKube-1 23 May 14:25:50 14:29:56 41° 99° (E) 14:34:01 .
Oscar 19 23 May 14:42:17 14:46:57 32° 266° (W) 14:51:38 437.125/150
AO-7 23 May 14:43:35 14:51:41 62° 58° (ENE) 14:59:51 .
BEESAT 2 23 May 14:44:14 14:48:14 51° 35° (NE) 14:52:12 435.950
AO-85 23 May 15:01:44 15:05:12 29° 237° (WSW) 15:08:48 145.980
ITUPSAT 1 23 May 15:06:03 15:08:45 15° 86° (E) 15:11:27 437.325
BEESAT 3 23 May 15:13:36 15:17:34 55° 230° (SW) 15:21:29 437.485
VELOX 1 23 May 15:13:36 15:17:22 28° 300° (WNW) 15:21:05 145.980
50 SAT 23 May 15:19:47 15:22:40 25° 297° (WNW) 15:25:32 437.505
YUBILEINY 23 May 15:20:07 15:27:02 27° 284° (WNW) 15:33:58 435.215
Gurwin Techsat 1B 23 May 15:28:52 15:33:05 24° 270° (W) 15:37:18 435.225
ITAMSAT 1 23 May 15:34:20 15:39:32 86° 252° (WSW) 15:44:46 435.822/435.867
SPROUT 23 May 15:38:04 15:40:56 18° 305° (NW) 15:43:48 437.525
BEESAT 23 May 15:41:21 15:45:29 28° 93° (E) 15:49:36 436.000
NO-84 23 May 15:50:17 15:54:11 61° 201° (SSW) 15:57:44 435.350 FM
O/OREOS (USA 219) 23 May 15:55:34 15:58:59 21° 257° (WSW) 16:02:21 437.305
MOZHAYETS 4 23 May 15:57:57 16:01:47 25° 91° (E) 16:05:36
DX 1 23 May 16:01:59 16:05:31 25° 302° (WNW) 16:09:03 434.975-435.025
UKube-1 23 May 16:02:04 16:05:53 31° 299° (WNW) 16:09:41 .
DOVE 4 23 May 16:05:11 16:07:00 12° 51° (NE) 16:08:49 437.250
BEESAT 2 23 May 16:22:11 16:25:54 34° 236° (SW) 16:29:35 435.950
CUBESAT XI-V 23 May 16:34:39 16:36:52 13° 83° (E) 16:39:03 437.345
HO-68 23 May 16:36:56 16:41:05 17° 32° (NNE) 16:45:14 435.675
AO-7 23 May 16:36:58 16:44:49 45° 261° (W) 16:52:45 .
ITUPSAT 1 23 May 16:42:31 16:47:22 82° 105° (ESE) 16:52:12 437.325
XW-2D 23 May 16:47:13 16:49:10 14° 54° (NE) 16:51:06 145.860 - 145.880
XW-2B 23 May 16:54:41 16:56:55 15° 56° (NE) 16:59:10 145.730 - 145.750
CUTE-I 23 May 17:03:05 17:07:24 26° 55° (NE) 17:11:44 437.470
XW-2C 23 May 17:07:30 17:10:15 19° 59° (ENE) 17:13:02 145.795 - 145.815
XW-2F 23 May 17:09:27 17:12:12 19° 59° (ENE) 17:14:57 145.980 - 146.000
ITAMSAT 1 23 May 17:16:28 17:19:48 17° 274° (W) 17:23:09 435.822/435.867
BEESAT 23 May 17:18:52 17:23:33 53° 293° (WNW) 17:28:12 436.000
KKS-1 23 May 17:19:03 17:22:41 24° 92° (E) 17:26:17 437.445
NUDT-PHONESAT 23 May 17:20:20 17:23:04 20° 59° (ENE) 17:25:50 437.300
KAITUO 1B 23 May 17:23:18 17:26:13 21° 60° (ENE) 17:29:09 145.475/437.950
NO-84 23 May 17:28:27 17:31:10 19° 222° (SW) 17:33:42 435.350 FM
MOZHAYETS 4 23 May 17:34:42 17:39:17 58° 291° (WNW) 17:43:51
DOVE 4 23 May 17:39:26 17:43:58 61° 71° (ENE) 17:48:16 437.250
LilacSat-2 23 May 17:40:17 17:43:50 37° 66° (ENE) 17:47:26 437.200
CUTE 1.7 + AOD 2 23 May 17:56:41 17:59:01 14° 52° (NE) 18:01:22 437.475
STARS 23 May 18:00:35 18:04:22 27° 94° (E) 18:08:07 437.465
CUBESAT XI-V 23 May 18:10:22 18:15:05 76° 104° (ESE) 18:19:44 437.345
XW-2D 23 May 18:18:56 18:22:44 84° 78° (ENE) 18:26:37 145.860 - 145.880
HO-68 23 May 18:20:29 18:27:08 43° 56° (NE) 18:33:50 435.675
ITUPSAT 1 23 May 18:21:06 18:24:43 21° 306° (NW) 18:28:18 437.325
XW-2B 23 May 18:26:46 18:30:35 84° 255° (WSW) 18:34:28 145.730 - 145.750
AAUSAT CUBESAT 2 23 May 18:30:04 18:31:15 11° 49° (NE) 18:32:26 437.432
AO-7 23 May 18:38:19 18:40:04 11° 285° (WNW) 18:41:50 .
XW-2C 23 May 18:40:19 18:44:06 61° 258° (WSW) 18:47:56 145.795 - 145.815
CUTE-I 23 May 18:41:44 18:47:02 73° 255° (WSW) 18:52:23 437.470
XW-2F 23 May 18:42:13 18:45:59 61° 259° (W) 18:49:48 145.980 - 146.000
XW-2A 23 May 18:49:05 18:51:54 25° 64° (ENE) 18:54:45 145.665 - 145.685
SEEDS 23 May 18:51:37 18:55:10 26° 61° (ENE) 18:58:44 437.485
NUDT-PHONESAT 23 May 18:53:00 18:56:40 56° 260° (W) 19:00:23 437.300
KKS-1 23 May 18:55:12 18:59:33 55° 293° (WNW) 19:03:52 437.445
KAITUO 1B 23 May 18:56:16 18:59:57 51° 260° (W) 19:03:42 145.475/437.950
BEESAT 23 May 18:58:17 19:00:22 13° 314° (NW) 19:02:28 436.000
Oscar 11 23 May 19:03:05 19:04:19 11° 48° (NE) 19:05:32 .
MOZHAYETS 4 23 May 19:13:27 19:15:33 13° 312° (NW) 19:17:40
LilacSat-2 23 May 19:14:52 19:18:12 28° 266° (W) 19:21:36 437.200
DOVE 4 23 May 19:18:28 19:22:02 22° 269° (W) 19:25:28 437.250
AO-73 23 May 19:23:14 19:26:01 17° 54° (NE) 19:28:50 145.935
CUBEBUG 2 23 May 19:29:47 19:33:43 41° 66° (ENE) 19:37:44 437.445
CUTE 1.7 + AOD 2 23 May 19:29:53 19:34:10 75° 72° (ENE) 19:38:29 437.475
ZACube-1 23 May 19:34:21 19:37:37 22° 58° (ENE) 19:40:57 437.345
STARS 23 May 19:36:42 19:40:55 47° 294° (WNW) 19:45:07 437.465
STRAND 1 23 May 19:41:03 19:44:48 20° 88° (E) 19:48:32 437.568
UWE-3 23 May 19:47:55 19:51:51 40° 66° (ENE) 19:55:53 435.000/436.395/437.385
CUBESAT XI-V 23 May 19:48:28 19:52:00 21° 304° (NW) 19:55:30 437.345
PCSat 23 May 19:49:30 19:52:49 17° 106° (ESE) 19:56:07 145.827
XW-2D 23 May 19:55:42 19:57:31 13° 274° (W) 19:59:19 145.860 - 145.880
AAUSAT CUBESAT 2 23 May 20:01:46 20:05:52 55° 70° (ENE) 20:09:59 437.432
XW-2B 23 May 20:04:14 20:05:27 11° 275° (W) 20:06:39 145.730 - 145.750
HO-68 23 May 20:07:39 20:14:43 59° 258° (WSW) 20:21:53 435.675
EO-88 23 May 20:20:38 20:21:20 10° 52° (NE) 20:22:01 145.990 - 145.960
XW-2A 23 May 20:21:31 20:24:34 32° 263° (W) 20:27:41 145.665 - 145.685
CUTE-I 23 May 20:25:10 20:28:04 15° 276° (W) 20:30:58 437.470
SEEDS 23 May 20:26:31 20:30:40 49° 261° (W) 20:34:50 437.485
KKS-1 23 May 20:33:34 20:35:13 12° 313° (NW) 20:36:53 437.445
Oscar 11 23 May 20:35:18 20:39:31 52° 69° (ENE) 20:43:47 .
DELFI C3 23 May 20:54:25 20:57:49 27° 62° (ENE) 21:01:12 145.870
AO-73 23 May 20:57:27 21:01:41 87° 257° (WSW) 21:06:03 145.935
CUBEBUG 2 23 May 21:06:52 21:10:30 28° 266° (W) 21:14:12 437.445
CUTE 1.7 + AOD 2 23 May 21:07:41 21:10:32 17° 273° (W) 21:13:23 437.475
ZACube-1 23 May 21:09:20 21:13:32 63° 258° (WSW) 21:17:51 437.345
STARS 23 May 21:15:31 21:16:18 10° 314° (NW) 21:17:04 437.465
STRAND 1 23 May 21:19:27 21:24:37 82° 289° (WNW) 21:29:47 437.568
UWE-3 23 May 21:24:44 21:28:26 30° 266° (W) 21:32:15 435.000/436.395/437.385
M-CUBED/EXP-1 PRIME 23 May 21:26:58 21:29:37 21° 99° (E) 21:32:10 437.505
PCSat 23 May 21:29:56 21:35:19 72° 127° (SE) 21:40:47 145.827
FO-29 23 May 21:37:30 21:40:14 13° 81° (E) 21:43:06 435.910
AAUSAT CUBESAT 2 23 May 21:38:23 21:41:39 22° 269° (W) 21:44:56 437.432
EO-88 23 May 21:50:39 21:54:18 64° 72° (ENE) 21:57:58 145.990 - 145.960
ESTCUBE 1 23 May 21:55:15 21:57:55 16° 51° (NE) 22:00:34 437.505/2401.250
HO-68 23 May 22:00:17 22:04:05 15° 280° (W) 22:07:54 435.675
Oscar 11 23 May 22:12:22 22:15:57 24° 268° (W) 22:19:33 .
TIGRISAT 23 May 22:27:24 22:30:48 20° 90° (E) 22:34:14 435.000
DELFI C3 23 May 22:28:38 22:32:27 42° 262° (W) 22:36:17 145.870
PRISM 23 May 22:35:05 22:38:33 26° 94° (E) 22:41:59 437.425
AO-73 23 May 22:36:31 22:38:39 13° 275° (W) 22:40:48 145.935
LO-87 23 May 22:45:55 22:49:17 42° 68° (ENE) 22:52:40 145.935 - 145.965
UNISAT 6 23 May 22:57:34 23:01:49 37° 97° (E) 23:06:07 437.425
STRAND 1 23 May 22:59:33 23:03:08 19° 309° (NW) 23:06:44 437.568
M-CUBED/EXP-1 PRIME 23 May 23:01:02 23:04:19 40° 300° (WNW) 23:07:26 437.505
VELOX 1 23 May 23:05:56 23:09:04 19° 55° (NE) 23:12:14 145.980
PCSat 23 May 23:14:05 23:19:09 38° 330° (NNW) 23:24:15 145.827
FO-29 23 May 23:20:33 23:26:30 58° 101° (ESE) 23:33:11 435.910
ISS 23 May 23:20:44 23:23:11 19° 151° (SSE) 23:25:38 437.550
Tancredo 1 23 May 23:22:54 23:25:24 23° 156° (SSE) 23:27:54 437.200
EO-88 23 May 23:26:09 23:28:23 15° 271° (W) 23:30:39 145.990 - 145.960
SPROUT 23 May 23:26:22 23:29:49 25° 60° (ENE) 23:33:18 437.525
ESTCUBE 1 23 May 23:29:28 23:34:00 74° 72° (ENE) 23:38:34 437.505/2401.250
SO-50 23 May 23:44:34 23:48:10 23° 118° (ESE) 23:51:47 436.795
DX 1 23 May 23:52:44 23:56:01 21° 56° (NE) 23:59:17 434.975-435.025
UKube-1 23 May 23:52:55 23:55:39 17° 53° (NE) 23:58:23 .
TIGRISAT 24 May 00:03:26 00:07:56 69° 289° (WNW) 00:12:31 435.000
PRISM 24 May 00:10:07 00:14:01 44° 294° (WNW) 00:17:53 437.425
EO-79 24 May 00:10:13 00:13:09 18° 89° (E) 00:16:06 145.935-145.965
AIST 2D 24 May 00:13:07 00:16:21 30° 96° (E) 00:19:32 435.315
LO-87 24 May 00:20:09 00:22:55 21° 267° (W) 00:25:43 145.935 - 145.965
50 SAT 24 May 00:25:29 00:28:46 41° 68° (ENE) 00:32:03 437.505
UNISAT 6 24 May 00:34:22 00:38:33 37° 296° (WNW) 00:42:47 437.425
YUBILEINY 24 May 00:38:21 00:44:52 24° 74° (ENE) 00:51:25 435.215
VELOX 1 24 May 00:40:37 00:45:03 80° 255° (WSW) 00:49:30 145.980
ISS 24 May 00:56:02 00:59:11 42° 171° (S) 01:02:19 437.550
NANOSAT C BR1 24 May 00:57:05 01:01:07 41° 98° (E) 01:05:08 145.865
Tancredo 1 24 May 00:57:48 01:00:45 42° 175° (S) 01:03:42 437.200
POLYITAN 1 24 May 00:58:15 01:02:23 46° 99° (E) 01:06:30 437.675
PCSat 24 May 00:59:37 01:03:58 24° 355° (N) 01:08:20 145.827
SPROUT 24 May 01:01:21 01:05:29 53° 259° (W) 01:09:40 437.525
FO-29 24 May 01:06:04 01:11:28 38° 300° (WNW) 01:17:28 435.910
QB50P2 24 May 01:06:41 01:10:53 58° 101° (E) 01:15:07 145.880/145.840
ESTCUBE 1 24 May 01:08:08 01:11:21 19° 271° (W) 01:14:34 437.505/2401.250
DUCHIFAT 1 24 May 01:09:40 01:13:47 48° 100° (E) 01:17:54 145.980
BEESAT 24 May 01:19:17 01:22:05 16° 49° (NE) 01:24:55 436.000
SO-50 24 May 01:23:38 01:28:13 80° 318° (NW) 01:32:47 436.795
UKube-1 24 May 01:26:46 01:31:05 87° 79° (ENE) 01:35:27 .
DX 1 24 May 01:27:28 01:31:48 70° 256° (WSW) 01:36:10 434.975-435.025
MOZHAYETS 4 24 May 01:32:56 01:34:35 12° 47° (NE) 01:36:14
TIGRISAT 24 May 01:41:28 01:43:53 14° 309° (NW) 01:46:21 435.000
BUGSAT 1 24 May 01:41:48 01:45:36 36° 97° (E) 01:49:26 437.445
EO-79 24 May 01:45:09 01:49:23 70° 289° (WNW) 01:53:37 145.935-145.965
AIST 2D 24 May 01:46:23 01:49:33 30° 294° (WNW) 01:52:41 435.315
Gurwin Techsat 1B 24 May 01:57:05 02:00:29 17° 85° (E) 02:03:51 435.225
50 SAT 24 May 01:59:08 02:01:49 21° 267° (W) 02:04:31 437.505
ITUPSAT 1 24 May 02:18:57 02:23:20 38° 62° (ENE) 02:27:46 437.325
VELOX 1 24 May 02:20:13 02:22:15 13° 275° (W) 02:24:18 145.980
RS-15 24 May 02:21:16 02:31:11 31° 103° (ESE) 02:41:11 29.354- 29.394
YUBILEINY 24 May 02:31:40 02:40:23 82° 98° (E) 02:49:13 435.215
ISS 24 May 02:32:15 02:35:22 41° 191° (S) 02:38:29 437.550
NANOSAT C BR1 24 May 02:33:01 02:36:45 30° 298° (WNW) 02:40:28 145.865
Tancredo 1 24 May 02:33:22 02:36:12 33° 195° (SSW) 02:39:02 437.200
POLYITAN 1 24 May 02:34:22 02:38:01 28° 299° (WNW) 02:41:41 437.675
AO-7 24 May 02:40:59 02:42:04 10° 74° (ENE) 02:43:08 .
QB50P2 24 May 02:43:02 02:46:24 23° 301° (WNW) 02:49:47 145.880/145.840
PCSat 24 May 02:44:14 02:48:59 29° 21° (NNE) 02:53:44 145.827
Oscar 19 24 May 02:45:36 02:50:43 54° 101° (E) 02:55:45 437.125/150
DUCHIFAT 1 24 May 02:45:44 02:49:17 26° 299° (WNW) 02:52:49 145.980
KKS-1 24 May 02:50:40 02:52:09 12° 47° (NE) 02:53:39 437.445
FO-29 24 May 02:53:19 02:55:10 11° 322° (NW) 02:57:03 435.910
BEESAT 24 May 02:54:22 02:59:06 70° 70° (ENE) 03:03:52 436.000
SO-50 24 May 03:05:13 03:09:16 30° 342° (NNW) 03:13:19 436.795
UKube-1 24 May 03:05:16 03:07:45 15° 273° (W) 03:10:15 .
MOZHAYETS 4 24 May 03:06:18 03:10:46 51° 67° (ENE) 03:15:18
DX 1 24 May 03:07:35 03:08:50 11° 276° (W) 03:10:04 434.975-435.025
BUGSAT 1 24 May 03:17:17 03:20:58 33° 296° (WNW) 03:24:39 437.445
EO-79 24 May 03:22:21 03:24:27 14° 309° (NW) 03:26:32 145.935-145.965
STARS 24 May 03:30:36 03:32:23 12° 48° (NE) 03:34:11 437.465
Gurwin Techsat 1B 24 May 03:35:54 03:41:16 83° 106° (ESE) 03:46:37 435.225
ITAMSAT 1 24 May 03:40:29 03:44:16 20° 88° (E) 03:48:04 435.822/435.867
CUBESAT XI-V 24 May 03:43:55 03:47:59 29° 60° (ENE) 03:52:04 437.345
ITUPSAT 1 24 May 03:56:41 04:01:10 40° 262° (W) 04:05:43 437.325
ISS 24 May 04:08:59 04:11:21 18° 210° (SSW) 04:13:41 437.550
Tancredo 1 24 May 04:09:51 04:11:21 13° 214° (SW) 04:12:51 437.200
KKS-1 24 May 04:23:30 04:27:48 53° 67° (ENE) 04:32:08 437.445
Oscar 19 24 May 04:25:16 04:29:51 32° 301° (WNW) 04:34:24 437.125/150
PCSat 24 May 04:27:47 04:33:15 72° 44° (NE) 04:38:41 145.827
AO-7 24 May 04:29:27 04:37:21 44° 98° (E) 04:45:14 .
RS-15 24 May 04:29:44 04:41:57 79° 130° (SE) 04:54:19 29.354- 29.394
YUBILEINY 24 May 04:30:32 04:38:16 34° 304° (NW) 04:46:06 435.215
BEESAT 24 May 04:33:45 04:37:22 21° 270° (W) 04:41:01 436.000
O/OREOS (USA 219) 24 May 04:36:06 04:39:20 19° 102° (ESE) 04:42:34 437.305
MOZHAYETS 4 24 May 04:44:16 04:48:12 27° 267° (W) 04:52:10
SO-50 24 May 04:47:06 04:50:54 25° 6° (N) 04:54:41 436.795
STARS 24 May 05:03:37 05:07:54 59° 69° (ENE) 05:12:13 437.465
Gurwin Techsat 1B 24 May 05:16:33 05:20:43 24° 307° (NW) 05:24:50 435.225
ITAMSAT 1 24 May 05:19:10 05:24:24 83° 289° (WNW) 05:29:37 435.822/435.867
CUBESAT XI-V 24 May 05:20:33 05:25:10 52° 260° (W) 05:29:48 437.345
AO-85 24 May 05:24:34 05:26:14 12° 113° (ESE) 05:27:52 145.980
STRAND 1 24 May 05:27:45 05:30:22 14° 45° (NE) 05:32:59 437.568
KKS-1 24 May 06:00:59 06:04:39 25° 267° (W) 06:08:20 437.445
PCSat 24 May 06:11:38 06:16:18 30° 246° (WSW) 06:20:56 145.827
O/OREOS (USA 219) 24 May 06:13:37 06:18:13 78° 302° (WNW) 06:22:51 437.305
KAITUO 1B 24 May 06:22:10 06:23:18 11° 85° (E) 06:24:26 145.475/437.950
AO-7 24 May 06:22:19 06:30:32 64° 301° (WNW) 06:38:45 .
SO-50 24 May 06:27:58 06:32:19 44° 30° (NNE) 06:36:40 436.795
YUBILEINY 24 May 06:34:53 06:38:44 13° 335° (NNW) 06:42:37 435.215
LilacSat-2 24 May 06:40:42 06:43:43 21° 91° (E) 06:46:45 437.200
STARS 24 May 06:41:12 06:44:37 22° 268° (W) 06:48:02 437.465
RS-15 24 May 06:43:09 06:55:24 61° 340° (NNW) 07:07:35 29.354- 29.394
M-CUBED/EXP-1 PRIME 24 May 06:45:29 06:48:23 19° 51° (NE) 06:51:09 437.505
BEESAT 3 24 May 06:47:10 06:50:20 23° 119° (ESE) 06:53:32 437.485
CUTE-I 24 May 06:51:38 06:56:06 27° 92° (E) 07:00:35 437.470
ITAMSAT 1 24 May 06:59:30 07:03:12 20° 310° (NW) 07:06:54 435.822/435.867
AO-85 24 May 07:01:54 07:05:56 69° 133° (SE) 07:09:52 145.980
STRAND 1 24 May 07:03:36 07:08:34 56° 66° (ENE) 07:13:35 437.568
DOVE 4 24 May 07:08:16 07:12:24 58° 101° (E) 07:16:31 437.250
XW-2D 24 May 07:18:28 07:22:13 46° 99° (E) 07:25:57 145.860 - 145.880
XW-2B 24 May 07:26:18 07:30:07 53° 101° (E) 07:33:54 145.730 - 145.750
HO-68 24 May 07:27:50 07:33:08 21° 85° (E) 07:38:23 435.675
XW-2A 24 May 07:37:53 07:38:37 11° 86° (E) 07:39:22 145.665 - 145.685
XW-2C 24 May 07:39:47 07:43:40 74° 103° (ESE) 07:47:31 145.795 - 145.815
XW-2F 24 May 07:41:11 07:45:04 73° 104° (ESE) 07:48:54 145.980 - 146.000
NUDT-PHONESAT 24 May 07:49:59 07:53:47 75° 104° (ESE) 07:57:34 437.300
KAITUO 1B 24 May 07:54:07 07:57:58 84° 105° (ESE) 08:01:47 145.475/437.950
O/OREOS (USA 219) 24 May 07:54:55 07:58:24 21° 325° (NW) 08:01:52 437.305
BEESAT 2 24 May 07:56:35 08:00:18 38° 125° (SE) 08:04:05 435.950
FO-29 24 May 07:59:45 08:02:15 14° 41° (NE) 08:04:49 435.910
SEEDS 24 May 08:03:37 08:06:35 18° 89° (E) 08:09:32 437.485
SO-50 24 May 08:08:31 08:12:55 50° 231° (SW) 08:17:17 436.795
LilacSat-2 24 May 08:14:29 08:18:17 50° 291° (WNW) 08:22:02 437.200
AO-7 24 May 08:15:33 08:21:58 26° 325° (NW) 08:28:24 .
M-CUBED/EXP-1 PRIME 24 May 08:18:17 08:22:30 77° 249° (WSW) 08:26:24 437.505
BEESAT 3 24 May 08:23:35 08:27:35 70° 320° (NW) 08:31:38 437.485
UNISAT 6 24 May 08:29:09 08:31:28 14° 51° (NE) 08:33:49 437.425
CUTE-I 24 May 08:31:18 08:36:36 64° 292° (WNW) 08:41:52 437.470
AO-73 24 May 08:39:24 08:41:29 13° 84° (E) 08:43:34 145.935
YUBILEINY 24 May 08:40:07 08:41:06 10° 10° (N) 08:42:04 435.215
AO-85 24 May 08:43:01 08:46:37 31° 335° (NNW) 08:50:11 145.980
CUTE 1.7 + AOD 2 24 May 08:43:15 08:47:30 56° 100° (E) 08:51:42 437.475
STRAND 1 24 May 08:43:39 08:48:04 29° 267° (W) 08:52:31 437.568
DOVE 4 24 May 08:46:37 08:49:49 22° 301° (WNW) 08:53:00 437.250
CUBEBUG 2 24 May 08:49:09 08:53:21 37° 96° (E) 08:57:37 437.445
ZACube-1 24 May 08:50:49 08:53:52 17° 88° (E) 08:56:55 437.345
XW-2D 24 May 08:53:04 08:56:13 24° 298° (WNW) 08:59:20 145.860 - 145.880
RS-15 24 May 08:58:06 09:10:19 57° 12° (NNE) 09:22:12 29.354- 29.394
XW-2B 24 May 09:01:03 09:04:02 21° 300° (WNW) 09:07:00 145.730 - 145.750
UWE-3 24 May 09:06:00 09:10:09 35° 95° (E) 09:14:22 435.000/436.395/437.385
XW-2A 24 May 09:08:28 09:11:55 87° 286° (WNW) 09:15:22 145.665 - 145.685
AAUSAT CUBESAT 2 24 May 09:12:01 09:15:56 38° 97° (E) 09:19:49 437.432
HO-68 24 May 09:14:46 09:22:02 79° 108° (ESE) 09:29:15 435.675
XW-2C 24 May 09:14:53 09:17:25 17° 303° (WNW) 09:19:56 145.795 - 145.815
XW-2F 24 May 09:16:14 09:18:45 17° 303° (WNW) 09:21:16 145.980 - 146.000
NUDT-PHONESAT 24 May 09:24:51 09:27:14 16° 303° (WNW) 09:29:37 437.300
KAITUO 1B 24 May 09:29:13 09:31:28 15° 304° (NW) 09:33:42 145.475/437.950
PRISM 24 May 09:30:37 09:34:37 49° 68° (ENE) 09:38:37 437.425
TIGRISAT 24 May 09:32:44 09:36:42 38° 64° (ENE) 09:40:46 435.000
BEESAT 2 24 May 09:34:08 09:38:02 47° 326° (NW) 09:42:00 435.950
SEEDS 24 May 09:38:30 09:42:45 68° 288° (WNW) 09:46:56 437.485
O/OREOS (USA 219) 24 May 09:39:14 09:39:39 10° 350° (N) 09:40:02 437.305
FO-29 24 May 09:41:10 09:46:11 52° 65° (ENE) 09:51:27 435.910
Oscar 11 24 May 09:51:13 09:55:22 40° 97° (E) 09:59:28 .
M-CUBED/EXP-1 PRIME 24 May 09:55:57 09:57:29 12° 266° (W) 09:59:00 437.505
DELFI C3 24 May 09:59:07 10:01:38 16° 88° (E) 10:04:07 145.870
BEESAT 3 24 May 10:02:23 10:05:47 25° 342° (NNW) 10:09:12 437.485
UNISAT 6 24 May 10:03:11 10:07:27 73° 73° (ENE) 10:11:50 437.425
AO-7 24 May 10:07:49 10:12:03 15° 352° (N) 10:16:17 .
CUTE-I 24 May 10:12:30 10:15:46 17° 313° (NW) 10:19:01 437.470
AO-73 24 May 10:13:57 10:18:29 77° 104° (ESE) 10:23:03 145.935
CUTE 1.7 + AOD 2 24 May 10:19:36 10:23:04 24° 301° (WNW) 10:26:29 437.475
NANOSAT C BR1 24 May 10:22:31 10:24:46 14° 52° (NE) 10:27:00 145.865
POLYITAN 1 24 May 10:23:51 10:26:22 16° 53° (NE) 10:28:53 437.675
AO-85 24 May 10:25:03 10:28:03 20° 359° (N) 10:31:02 145.980
CUBEBUG 2 24 May 10:25:51 10:29:59 37° 295° (WNW) 10:34:12 437.445
ZACube-1 24 May 10:26:10 10:30:41 80° 289° (WNW) 10:35:15 437.345
NO-84 24 May 10:26:48 10:29:56 20° 138° (SE) 10:32:58 435.350 FM
QB50P2 24 May 10:31:47 10:34:43 19° 56° (NE) 10:37:41 145.880/145.840
DUCHIFAT 1 24 May 10:34:29 10:37:02 16° 54° (NE) 10:39:37 145.980
YUBILEINY 24 May 10:36:07 10:42:37 22° 43° (NE) 10:49:06 435.215
UWE-3 24 May 10:42:28 10:46:40 39° 295° (WNW) 10:50:57 435.000/436.395/437.385
XW-2A 24 May 10:42:47 10:44:07 12° 305° (NW) 10:45:28 145.665 - 145.685
EO-88 24 May 10:46:07 10:49:28 31° 96° (E) 10:52:46 145.990 - 145.960
AAUSAT CUBESAT 2 24 May 10:47:39 10:51:21 31° 297° (WNW) 10:55:00 437.432
AIST 2D 24 May 10:54:05 10:57:18 34° 67° (ENE) 11:00:33 435.315
BUGSAT 1 24 May 11:05:51 11:07:21 12° 50° (NE) 11:08:52 437.445
